Pittsfield, IL

4:46 PM CDT on September 30, 2016 (GMT -0500)
Pittsfield Penstone Municipal

Weather History for KPPQ - January, 2011

Change the Weather History Date:

Monday, January 10, 2011

  Actual Average (KUIN) Record (KUIN)
Temperature  
Mean Temperature 24 °F 26 °F  
Max Temperature 28 °F 34 °F 59 °F (1939)
Min Temperature 21 °F 18 °F -21 °F (1982)
Degree Days  
Heating Degree Days 40 39  
Month to date heating degree days 386  
Since 1 July heating degree days 2577  
Cooling Degree Days 0 0  
Month to date cooling degree days 0  
Year to date cooling degree days 0  
Moisture  
Dew Point 17 °F    
Average Humidity 74    
Maximum Humidity 86    
Minimum Humidity 64    
Precipitation  
Precipitation 0.00 in 0.06 in 0.84 in (1904)
Month to date precipitation 0.54  
Year to date precipitation 0.54  
Sea Level Pressure  
Sea Level Pressure 30.26 in    
Wind  
Wind Speed 7 mph (ENE)    
Max Wind Speed 13 mph    
Max Gust Speed 22 mph    
Visibility 10 miles    
Events Snow    
T = Trace of Precipitation, MM = Missing Value Source: NWS Daily Summary

Daily Weather History Graph

Daily Weather History Graph

Search for Another Location

Airport or City:

Trip Planner

Search our weather history database for the weather conditions in past years. The results will help you decide how hot, cold, wet, or windy it might be!

Date:

Astronomy

Jan. 10, 2011 Rise Set
Actual Time 7:23 AM CST 4:57 PM CST
Civil Twilight 6:53 AM CST 5:27 PM CST
Nautical Twilight 6:20 AM CST 6:01 PM CST
Astronomical Twilight 5:47 AM CST 6:33 PM CST
Moon 10:20 AM CST (1/10) 11:23 PM CST (1/10)
Length of Visible Light 10h 33m
Length of Day
9h 34m
Waxing Crescent, 34% of the Moon is Illuminated
Jan 10
Waxing Crescent
Jan 12
First Quarter
Jan 19
Full
Jan 26
Last Quarter
Feb 2
New

Hourly Weather History & Observations

Time (CST) Temp. Windchill Dew Point Humidity Pressure Visibility Wind Dir Wind Speed Gust Speed Precip Events Conditions
12:07 AM 21.2 °F 13.6 °F 15.8 °F 80% 30.28 in 10.0 mi East 5.8 mph - N/A   Scattered Clouds
12:27 AM 21.2 °F 13.6 °F 15.8 °F 80% 30.28 in 10.0 mi ENE 5.8 mph - N/A   Mostly Cloudy
12:47 AM 21.2 °F 13.6 °F 15.8 °F 80% 30.28 in 10.0 mi ENE 5.8 mph - N/A   Overcast
1:07 AM 21.2 °F 13.6 °F 15.8 °F 80% 30.28 in 10.0 mi ENE 5.8 mph - N/A   Scattered Clouds
1:27 AM 21.2 °F 12.6 °F 15.8 °F 80% 30.28 in 10.0 mi ENE 6.9 mph - N/A   Clear
1:47 AM 21.2 °F 12.6 °F 15.8 °F 80% 30.28 in 10.0 mi ENE 6.9 mph - N/A   Clear
2:09 AM 23.0 °F 13.9 °F 15.8 °F 74% 30.28 in 10.0 mi ENE 8.1 mph - N/A   Mostly Cloudy
2:27 AM 23.0 °F 13.9 °F 15.8 °F 74% 30.29 in 10.0 mi ENE 8.1 mph - N/A   Overcast
2:47 AM 23.0 °F 13.1 °F 15.8 °F 74% 30.29 in 10.0 mi ENE 9.2 mph - N/A   Overcast
3:07 AM 23.0 °F 13.9 °F 15.8 °F 74% 30.29 in 10.0 mi ENE 8.1 mph - N/A   Overcast
3:27 AM 23.0 °F 14.7 °F 15.8 °F 74% 30.28 in 10.0 mi ENE 6.9 mph - N/A   Overcast
3:47 AM 23.0 °F 14.7 °F 15.8 °F 74% 30.28 in 10.0 mi ENE 6.9 mph - N/A   Overcast
4:07 AM 23.0 °F 14.7 °F 17.6 °F 80% 30.27 in 10.0 mi ENE 6.9 mph - N/A   Overcast
4:27 AM 23.0 °F 14.7 °F 17.6 °F 80% 30.27 in 10.0 mi ENE 6.9 mph - N/A   Overcast
4:47 AM 21.2 °F 12.6 °F 17.6 °F 86% 30.27 in 10.0 mi NE 6.9 mph - N/A   Overcast
5:07 AM 21.2 °F 13.6 °F 17.6 °F 86% 30.27 in 10.0 mi NE 5.8 mph - N/A   Scattered Clouds
5:27 AM 21.2 °F 12.6 °F 15.8 °F 80% 30.27 in 10.0 mi NE 6.9 mph - N/A   Clear
5:47 AM 21.2 °F 12.6 °F 15.8 °F 80% 30.27 in 10.0 mi ENE 6.9 mph - N/A   Clear
6:07 AM 21.2 °F 12.6 °F 15.8 °F 80% 30.28 in 10.0 mi NE 6.9 mph - N/A   Clear
6:27 AM 21.2 °F 14.9 °F 17.6 °F 86% 30.28 in 10.0 mi NE 4.6 mph - N/A   Mostly Cloudy
6:47 AM 21.2 °F 14.9 °F 17.6 °F 86% 30.28 in 10.0 mi NE 4.6 mph - N/A   Overcast
7:09 AM 21.2 °F 13.6 °F 17.6 °F 86% 30.29 in 10.0 mi NE 5.8 mph - N/A   Overcast
7:27 AM 21.2 °F 14.9 °F 17.6 °F 86% 30.29 in 10.0 mi NE 4.6 mph - N/A   Overcast
7:47 AM 21.2 °F 13.6 °F 17.6 °F 86% 30.30 in 10.0 mi NE 5.8 mph - N/A   Overcast
8:07 AM 23.0 °F 17.0 °F 17.6 °F 80% 30.30 in 10.0 mi NE 4.6 mph - N/A   Overcast
8:27 AM 23.0 °F 14.7 °F 17.6 °F 80% 30.30 in 10.0 mi ENE 6.9 mph - N/A   Overcast
8:47 AM 23.0 °F 13.1 °F 17.6 °F 80% 30.30 in 10.0 mi ENE 9.2 mph - N/A   Overcast
9:07 AM 23.0 °F 13.9 °F 17.6 °F 80% 30.30 in 10.0 mi ENE 8.1 mph - N/A   Overcast
9:27 AM 24.8 °F 16.9 °F 17.6 °F 74% 30.30 in 10.0 mi ENE 6.9 mph - N/A   Overcast
9:47 AM 24.8 °F 16.9 °F 17.6 °F 74% 30.30 in 10.0 mi ENE 6.9 mph - N/A   Overcast
10:09 AM 24.8 °F 16.9 °F 17.6 °F 74% 30.30 in 10.0 mi ENE 6.9 mph - N/A   Overcast
10:27 AM 26.6 °F 18.2 °F 17.6 °F 69% 30.29 in 10.0 mi East 8.1 mph - N/A   Overcast
10:47 AM 26.6 °F 17.5 °F 17.6 °F 69% 30.27 in 10.0 mi East 9.2 mph - N/A   Overcast
11:07 AM 26.6 °F 17.5 °F 17.6 °F 69% 30.26 in 10.0 mi ENE 9.2 mph - N/A   Overcast
11:29 AM 26.6 °F 18.2 °F 17.6 °F 69% 30.25 in 10.0 mi East 8.1 mph - N/A   Overcast
11:47 AM 26.6 °F 17.5 °F 15.8 °F 64% 30.23 in 10.0 mi East 9.2 mph - N/A   Overcast
12:07 PM 26.6 °F 17.5 °F 15.8 °F 64% 30.23 in 10.0 mi East 9.2 mph - N/A   Overcast
12:27 PM 26.6 °F 16.8 °F 15.8 °F 64% 30.22 in 10.0 mi ENE 10.4 mph - N/A   Overcast
12:48 PM 26.6 °F 16.8 °F 15.8 °F 64% 30.21 in 10.0 mi East 10.4 mph - N/A   Overcast
1:07 PM 26.6 °F 18.2 °F 17.6 °F 69% 30.21 in 10.0 mi East 8.1 mph - N/A   Overcast
1:27 PM 26.6 °F 18.2 °F 15.8 °F 64% 30.21 in 10.0 mi East 8.1 mph - N/A   Overcast
1:47 PM 26.6 °F 17.5 °F 17.6 °F 69% 30.21 in 10.0 mi ENE 9.2 mph - N/A   Overcast
2:07 PM 26.6 °F 18.2 °F 17.6 °F 69% 30.21 in 10.0 mi ENE 8.1 mph - N/A   Overcast
2:27 PM 28.4 °F 19.1 °F 17.6 °F 64% 30.20 in 10.0 mi NE 10.4 mph - N/A   Overcast
2:47 PM 28.4 °F 19.7 °F 17.6 °F 64% 30.21 in 10.0 mi ENE 9.2 mph - N/A   Overcast
3:07 PM 28.4 °F 19.7 °F 17.6 °F 64% 30.21 in 10.0 mi East 9.2 mph - N/A   Overcast
3:27 PM 28.4 °F 19.1 °F 17.6 °F 64% 30.21 in 10.0 mi ENE 10.4 mph - N/A   Overcast
3:47 PM 28.4 °F 22.2 °F 19.4 °F 69% 30.22 in 10.0 mi East 5.8 mph - N/A   Overcast
4:07 PM 28.4 °F 22.2 °F 17.6 °F 64% 30.23 in 10.0 mi East 5.8 mph - N/A   Overcast
4:27 PM 28.4 °F 23.3 °F 19.4 °F 69% 30.23 in 10.0 mi East 4.6 mph - N/A   Overcast
4:47 PM 28.4 °F 22.2 °F 19.4 °F 69% 30.22 in 10.0 mi ENE 5.8 mph - N/A   Overcast
5:07 PM 28.4 °F 19.7 °F 19.4 °F 69% 30.22 in 10.0 mi East 9.2 mph - N/A   Overcast
5:27 PM 28.4 °F 20.4 °F 19.4 °F 69% 30.21 in 10.0 mi East 8.1 mph - N/A   Overcast
5:47 PM 28.4 °F 20.4 °F 17.6 °F 64% 30.21 in 10.0 mi East 8.1 mph 16.1 mph N/A   Overcast
6:07 PM 28.4 °F 18.0 °F 19.4 °F 69% 30.20 in 7.0 mi East 12.7 mph 21.9 mph N/A   Overcast
6:27 PM 28.4 °F 19.1 °F 21.2 °F 74% 30.20 in 5.0 mi East 10.4 mph 16.1 mph N/A Snow Light Snow
6:49 PM 26.6 °F 18.2 °F 21.2 °F 80% 30.20 in 7.0 mi East 8.1 mph 12.7 mph N/A Snow Light Snow
7:08 PM 28.4 °F 19.7 °F 19.4 °F 69% 30.19 in 10.0 mi East 9.2 mph - N/A Snow Light Snow
7:27 PM 28.4 °F 18.0 °F 19.4 °F 69% 30.19 in 7.0 mi East 12.7 mph 20.7 mph N/A Snow Light Snow
7:49 PM 28.4 °F 18.5 °F 21.2 °F 74% 30.19 in 5.0 mi East 11.5 mph - N/A Snow Light Snow
8:09 PM 28.4 °F 18.0 °F 21.2 °F 74% 30.18 in 3.0 mi East 12.7 mph 20.7 mph N/A Snow Light Snow
8:27 PM 26.6 °F 18.2 °F 21.2 °F 80% 30.18 in 5.0 mi East 8.1 mph - N/A Snow Light Snow
8:47 PM 26.6 °F 20.0 °F 21.2 °F 80% 30.18 in 7.0 mi East 5.8 mph - N/A Snow Light Snow
9:07 PM 26.6 °F 19.1 °F 21.2 °F 80% 30.18 in 4.0 mi East 6.9 mph - N/A Snow Light Snow
9:27 PM 28.4 °F 19.7 °F 21.2 °F 74% 30.18 in 2.5 mi ESE 9.2 mph - N/A Snow Light Snow
9:47 PM 26.6 °F 18.2 °F 23.0 °F 86% 30.18 in 2.5 mi East 8.1 mph - N/A Snow Light Snow
10:07 PM 26.6 °F 18.2 °F 24.8 °F 93% 30.18 in 2.5 mi East 8.1 mph - N/A Snow Light Snow
10:27 PM 26.6 °F 20.0 °F 24.8 °F 93% 30.18 in 2.0 mi East 5.8 mph - N/A Snow Light Snow
10:47 PM 26.6 °F 20.0 °F 24.8 °F 93% 30.18 in 1.5 mi East 5.8 mph - N/A Snow Light Snow
11:07 PM 26.6 °F 21.2 °F 24.8 °F 93% 30.17 in 1.2 mi East 4.6 mph - N/A Snow Light Snow
11:27 PM 26.6 °F 22.6 °F 24.8 °F 93% 30.16 in 1.2 mi East 3.5 mph - 0.01 in Snow Light Snow
11:47 PM 26.6 °F 22.6 °F 24.8 °F 93% 30.16 in 1.2 mi East 3.5 mph - 0.02 in Snow Light Snow